Wind_Speed
20 16 21 22 23 24 23 21 19 16 13 11 11 13 13 14 15 16 16 16 16 16 16 15 14 14 13 13 13 12 12 12 12 12 11 11 11 10 10 9 8 6 5
13 10 13 18 22 23 22 21 20 17 14 12 11 11 13 14 15 15 15 16 16 17 17 16 15 15 15 15 14 13 12 13 12 12 12 11 11 11 10 10 10 9 9
5 4 12 17 19 21 23 22 20 17 15 13 12 12 14 15 15 15 16 18 18 17 16 16 16 16 14 13 12 11 12 11 10 11 15 12 12 12 11 11 11 11 10
19 13 17 19 23 24 24 23 20 18 16 14 12 14 15 15 15 16 18 18 18 16 15 16 16 14 12 11 10 9 10 10 9 15 13 12 12 12 11 11 10 9 9
17 19 18 22 24 24 24 23 20 18 17 15 14 15 15 15 16 18 17 17 16 15 14 14 11 10 10 10 10 10 9 7 11 13 12 12 12 11 11 11 11 10 10
24 22 21 20 21 25 26 23 21 20 18 15 15 18 17 16 17 18 18 17 15 15 14 10 11 11 11 12 12 12 10 6 12 12 11 11 10 10 10 10 10 9 9
19 14 12 19 18 20 21 23 23 22 21 18 18 19 19 18 19 17 17 15 14 13 12 12 12 12 12 13 13 11 11 9 8 12 11 11 11 12 12 12 12 12 11
17 11 28 37 19 22 27 26 24 23 21 18 20 20 20 20 19 18 16 14 13 11 11 11 13 12 11 10 10 9 9 10 9 13 14 13 14 15 16 15 15 15 15
19 15 18 30 36 35 30 27 26 24 25 22 21 22 22 21 19 18 16 13 10 8 8 10 11 10 9 9 8 9 10 8 8 13 13 14 15 14 14 15 15 16 16
15 21 29 23 25 30 29 29 27 26 28 23 24 25 24 22 20 17 14 11 8 5 6 7 8 7 7 6 7 8 7 6 7 12 13 14 14 14 14 15 16 16 16
15 24 18 16 18 22 25 36 33 32 25 27 28 27 25 23 20 17 13 9 6 3 3 5 7 4 4 5 6 6 5 8 9 12 14 15 15 15 16 17 17 16 15
16 19 19 16 25 22 32 35 39 35 37 33 31 27 30 26 20 16 12 8 5 2 2 5 7 1 2 4 3 5 8 9 11 11 12 15 16 17 18 17 15 15 14
15 17 13 14 27 20 28 37 41 37 42 41 36 37 29 24 21 17 14 10 5 0 4 7 6 2 3 5 6 9 10 10 12 12 13 15 16 16 17 17 18 17 17
18 16 17 19 22 29 36 39 39 40 44 40 36 32 28 20 19 16 8 1 2 4 6 8 4 2 2 3 5 8 9 11 14 12 13 16 20 23 24 22 19 18 19
17 19 22 23 25 25 32 44 42 37 42 43 39 37 30 25 18 11 9 4 7 7 8 6 4 2 4 5 7 7 10 12 13 15 18 21 23 24 26 25 21 19 21
13 13 21 30 31 27 39 41 48 45 45 43 48 38 32 18 16 18 9 8 8 9 10 6 5 5 6 6 8 9 11 13 17 26 26 24 24 26 25 28 28 27 25
13 15 15 19 32 36 46 38 44 38 45 52 43 34 24 24 20 14 11 10 11 11 11 8 8 8 8 9 10 11 13 16 21 26 29 29 27 26 26 28 27 28 29
13 11 10 18 27 33 30 31 35 13 30 35 32 26 25 18 14 14 13 12 12 10 11 11 12 10 11 13 13 14 17 19 23 28 24 27 34 32 27 24 24 26 27
23 17 17 16 16 15 15 21 24 30 32 30 28 22 18 17 14 15 15 13 11 13 14 13 14 13 13 15 16 18 21 24 27 29 27 25 23 32 32 27 25 25 26
20 20 22 27 30 32 27 31 27 34 30 24 23 30 18 17 17 16 14 15 13 15 14 15 16 16 17 17 20 27 27 27 30 33 31 30 25 21 28 30 30 29 27
15 16 16 19 21 23 26 27 27 27 24 21 27 15 19 18 16 16 16 13 15 18 16 18 17 18 20 19 24 26 33 36 37 37 34 30 30 27 26 28 30 31 32
12 12 15 17 18 19 20 20 20 19 19 19 19 20 18 18 15 15 17 14 17 20 20 18 21 22 24 24 25 28 28 36 39 39 37 32 30 30 31 31 27 28 33
13 13 12 13 14 14 16 18 18 19 19 19 19 18 18 18 19 18 20 20 21 23 24 24 25 26 28 31 26 28 32 33 38 38 37 38 37 32 29 29 34 35 33
12 13 14 14 15 15 16 15 16 16 16 14 16 17 19 19 20 21 22 24 25 26 28 28 29 30 29 31 32 30 31 34 35 31 35 38 39 39 38 37 35 34 36
13 12 13 14 14 15 16 17 17 18 19 20 21 21 22 19 19 23 26 25 27 30 35 30 30 32 32 30 32 34 43 34 34 32 30 28 37 38 40 45 45 43 40
16 17 17 17 17 17 19 18 18 19 20 23 25 25 24 24 24 26 27 27 27 29 28 29 32 31 33 30 30 37 36 42 37 38 39 36 31 31 33 37 41 44 44
Wind_Direction
222 203 190 191 192 188 185 180 172 164 151 136 121 124 128 128 130 134 132 127 122 118 116 110 106 99 96 93 88 84 82 81 78 75 71 66 60 57 56 54 49 40 31
164 163 193 190 190 186 184 177 171 161 152 138 122 126 131 132 133 134 129 122 118 114 111 105 100 94 87 82 81 82 82 79 78 76 73 67 65 60 58 54 50 46 40
356 176 195 192 199 194 183 176 169 160 151 136 128 137 136 138 139 135 127 122 116 112 108 104 97 90 88 86 82 79 76 73 76 80 69 62 58 52 47 45 41 34 30
256 254 208 202 195 190 180 175 167 162 152 140 141 144 143 142 141 133 129 121 116 114 109 103 99 90 78 74 72 68 64 60 58 60 58 54 51 47 42 39 36 30 21
204 226 211 200 190 183 178 172 167 161 154 150 153 148 147 146 139 134 127 122 118 110 102 99 88 68 63 71 77 74 74 79 82 65 52 49 42 37 34 29 22 16 8
217 199 204 195 201 182 176 174 169 165 160 159 160 154 151 148 144 139 132 125 114 106 98 83 70 62 72 81 82 77 68 58 78 69 54 42 34 30 24 19 10 5 351
277 241 241 200 193 195 193 180 174 171 168 167 163 160 152 150 147 141 132 123 114 105 88 77 66 71 78 82 83 78 65 42 33 73 45 33 24 23 16 10 5 0 354
240 263 226 232 198 213 182 183 179 175 172 169 164 161 152 151 151 143 138 128 120 108 90 75 65 74 86 87 87 83 69 47 5 44 40 25 20 16 10 6 3 359 355
255 230 213 197 201 190 185 184 181 180 174 168 167 159 155 158 155 149 143 133 124 105 83 66 57 63 83 84 86 66 52 36 25 20 27 20 10 1 352 348 345 343 343
249 224 191 197 185 188 183 187 184 176 177 163 167 165 159 161 156 152 147 140 128 106 74 52 41 53 85 93 79 58 40 38 2 31 6 2 355 348 344 342 343 342 339
230 226 271 215 232 173 199 192 186 178 169 171 170 165 163 165 164 161 153 149 137 111 51 29 19 39 91 92 67 44 28 13 334 4 348 349 355 354 353 349 344 337 334
243 233 240 231 210 208 202 204 192 187 172 170 173 177 172 172 161 167 161 163 165 144 16 354 348 6 81 105 58 9 3 352 334 357 354 356 354 352 350 342 337 333 330
252 242 249 238 215 239 226 199 201 184 177 177 182 185 172 169 170 169 182 183 184 289 324 328 332 355 29 36 2 359 355 353 337 359 357 352 346 348 345 343 342 337 336
242 240 252 247 239 229 212 208 197 187 176 177 181 179 177 167 181 192 189 211 311 275 303 315 302 5 9 326 341 347 347 349 345 356 347 346 348 347 350 344 340 337 332
238 242 250 249 222 237 220 213 197 195 185 182 175 181 176 170 180 192 208 236 259 272 292 308 300 284 267 307 321 344 1 358 342 338 338 334 330 332 340 338 330 333 329
222 221 232 234 217 250 212 213 188 191 181 175 188 178 169 168 177 201 226 243 265 282 289 281 276 269 282 290 321 341 344 339 338 333 328 328 323 326 326 333 329 330 329
194 208 214 234 233 244 205 208 193 202 188 188 176 164 167 175 194 206 225 248 261 274 280 287 277 270 282 303 316 319 322 332 331 335 327 324 328 324 326 327 324 324 324
137 133 199 227 226 215 210 209 194 220 187 166 157 157 181 194 194 217 230 240 261 272 267 266 268 281 290 291 304 316 321 324 330 334 330 328 323 320 324 319 316 315 317
98 104 114 154 187 185 177 185 153 152 145 152 164 189 202 205 208 223 237 246 258 258 258 262 270 277 285 293 306 309 312 322 326 329 327 322 317 313 316 317 316 312 310
111 107 105 111 128 129 139 141 157 159 163 176 200 201 200 209 215 224 225 250 253 257 259 265 268 273 284 298 303 306 310 309 317 321 323 322 316 310 310 312 310 306 302
134 131 131 127 129 134 142 154 155 166 179 189 196 208 204 214 222 231 247 250 253 260 261 260 274 280 283 291 290 300 310 315 319 320 324 323 316 313 304 302 306 305 307
142 141 147 149 142 145 160 172 179 186 194 199 201 208 208 223 228 238 248 253 256 263 269 275 274 278 283 283 291 298 303 311 314 318 316 316 310 309 306 306 301 297 302
167 165 165 153 154 164 171 184 189 194 200 205 213 221 226 230 235 246 255 264 264 270 276 275 276 278 279 284 290 292 300 302 309 307 310 310 308 307 302 301 303 305 301
184 178 181 184 178 176 184 193 198 212 219 228 229 236 236 237 246 257 263 265 271 275 279 277 275 275 277 286 288 289 287 295 301 300 304 307 305 307 307 304 299 302 303
207 202 203 202 206 197 203 211 216 217 226 228 230 238 245 249 254 263 269 277 280 281 283 276 275 275 279 274 282 292 298 288 301 299 293 295 296 302 304 306 310 310 306
210 216 214 217 221 222 223 223 236 243 250 254 245 238 245 250 256 262 271 277 277 284 285 285 274 281 269 276 282 287 286 296 300 306 298 302 289 286 289 291 297 300 301
Height
3114 3115 3119 3124 3127 3129 3132 3136 3140 3143 3147 3150 3152 3153 3155 3157 3158 3159 3161 3162 3163 3164 3165 3166 3167 3168 3169 3169 3169 3169 3169 3168 3169 3169 3169 3169 3170 3170 3170 3170 3170 3170 3170
3101 3116 3121 3125 3129 3130 3133 3135 3138 3142 3145 3149 3151 3154 3155 3157 3159 3161 3162 3163 3164 3165 3166 3167 3168 3169 3169 3170 3170 3170 3170 3169 3169 3170 3170 3170 3170 3171 3171 3171 3171 3170 3170
3105 3115 3122 3124 3129 3132 3134 3135 3138 3142 3145 3149 3151 3154 3155 3158 3160 3161 3163 3164 3165 3166 3167 3168 3168 3170 3171 3171 3172 3171 3170 3170 3170 3171 3171 3171 3171 3171 3171 3171 3171 3171 3171
3118 3122 3122 3123 3127 3128 3132 3136 3139 3142 3145 3148 3151 3154 3156 3158 3160 3162 3163 3165 3166 3167 3169 3169 3169 3170 3171 3171 3172 3171 3171 3171 3171 3170 3172 3172 3172 3172 3172 3172 3172 3171 3172
3117 3120 3122 3122 3125 3126 3131 3136 3140 3144 3146 3148 3151 3153 3155 3159 3161 3162 3164 3166 3167 3168 3169 3171 3171 3171 3171 3171 3172 3172 3172 3172 3173 3172 3173 3173 3173 3173 3173 3172 3172 3172 3172
3108 3115 3119 3119 3124 3124 3128 3135 3139 3143 3146 3147 3151 3153 3155 3158 3161 3163 3165 3167 3168 3169 3170 3173 3172 3172 3171 3171 3172 3172 3173 3172 3173 3174 3175 3174 3174 3173 3173 3172 3172 3171 3171
3112 3111 3115 3118 3122 3124 3126 3135 3138 3142 3145 3146 3150 3153 3155 3159 3161 3164 3166 3168 3169 3171 3172 3173 3172 3172 3173 3173 3174 3175 3175 3174 3172 3175 3174 3175 3175 3173 3173 3173 3172 3171 3171
3103 3109 3110 3114 3116 3122 3127 3133 3138 3141 3144 3147 3150 3153 3156 3159 3162 3164 3166 3169 3171 3171 3172 3173 3173 3173 3173 3174 3175 3176 3175 3175 3171 3174 3174 3174 3174 3172 3172 3172 3171 3170 3170
3103 3107 3106 3105 3114 3118 3125 3133 3136 3139 3142 3146 3152 3154 3156 3159 3162 3164 3167 3169 3171 3172 3173 3173 3173 3174 3175 3175 3176 3176 3176 3176 3174 3172 3174 3174 3173 3173 3173 3172 3171 3170 3168
3101 3102 3103 3113 3109 3117 3122 3130 3134 3138 3141 3145 3151 3155 3156 3159 3162 3165 3167 3169 3171 3172 3172 3173 3174 3174 3175 3175 3175 3176 3176 3176 3173 3175 3174 3174 3173 3173 3172 3171 3169 3169 3168
3103 3105 3101 3111 3110 3111 3123 3125 3129 3133 3141 3146 3150 3153 3156 3158 3161 3164 3166 3168 3170 3172 3173 3173 3173 3174 3174 3175 3175 3176 3176 3175 3173 3174 3173 3172 3171 3170 3169 3168 3168 3167 3166
3102 3107 3106 3109 3111 3113 3118 3123 3126 3128 3133 3142 3147 3149 3151 3155 3160 3163 3165 3168 3170 3171 3172 3173 3173 3173 3173 3174 3175 3175 3174 3173 3171 3173 3171 3170 3170 3169 3168 3168 3167 3165 3165
3100 3103 3104 3108 3109 3113 3115 3118 3122 3125 3130 3137 3142 3146 3150 3156 3159 3160 3163 3164 3167 3169 3170 3172 3172 3172 3172 3173 3173 3174 3173 3173 3171 3172 3170 3169 3170 3169 3167 3165 3163 3162 3162
3099 3100 3101 3106 3109 3110 3111 3116 3118 3123 3127 3132 3140 3149 3151 3154 3158 3162 3163 3164 3166 3169 3171 3172 3171 3171 3172 3173 3173 3173 3173 3172 3170 3172 3171 3170 3167 3163 3161 3160 3160 3160 3159
3095 3096 3098 3101 3104 3108 3108 3109 3113 3119 3124 3129 3138 3142 3147 3154 3160 3162 3164 3165 3167 3169 3170 3170 3170 3170 3172 3172 3172 3173 3172 3171 3170 3170 3168 3166 3164 3162 3159 3157 3157 3156 3155
3093 3095 3095 3096 3097 3101 3103 3107 3111 3112 3118 3127 3131 3140 3149 3155 3159 3162 3163 3164 3166 3167 3168 3169 3169 3170 3171 3172 3170 3170 3169 3169 3168 3163 3162 3163 3161 3159 3156 3151 3148 3147 3149
3089 3092 3092 3093 3096 3098 3098 3105 3111 3114 3118 3123 3134 3144 3149 3154 3158 3159 3161 3163 3165 3165 3166 3167 3167 3169 3169 3168 3168 3168 3168 3165 3165 3164 3157 3154 3155 3154 3153 3149 3145 3143 3142
3087 3088 3089 3089 3094 3096 3102 3107 3115 3116 3123 3133 3140 3145 3150 3153 3155 3157 3159 3162 3162 3164 3164 3165 3166 3166 3166 3166 3164 3164 3163 3161 3162 3160 3158 3152 3147 3146 3149 3148 3144 3142 3140
3090 3091 3089 3090 3095 3101 3108 3112 3117 3123 3129 3136 3142 3145 3149 3151 3154 3156 3158 3159 3160 3161 3162 3163 3163 3163 3164 3162 3161 3160 3160 3158 3157 3155 3153 3152 3150 3142 3141 3143 3140 3138 3136
3096 3098 3100 3099 3100 3105 3111 3116 3122 3127 3132 3137 3140 3142 3146 3150 3152 3155 3156 3157 3159 3159 3160 3161 3161 3160 3158 3157 3156 3153 3153 3154 3152 3149 3149 3146 3145 3144 3138 3137 3135 3132 3130
3101 3103 3105 3106 3108 3111 3114 3119 3123 3128 3132 3136 3139 3142 3146 3148 3150 3152 3152 3155 3156 3156 3157 3158 3156 3156 3156 3155 3154 3150 3146 3143 3144 3141 3142 3140 3137 3138 3138 3135 3130 3125 3123
3104 3106 3108 3109 3111 3114 3118 3123 3126 3131 3134 3137 3140 3142 3145 3146 3147 3150 3151 3153 3155 3154 3153 3153 3152 3152 3151 3153 3150 3147 3147 3142 3136 3135 3131 3134 3134 3131 3128 3125 3125 3123 3119
3105 3108 3110 3110 3112 3115 3119 3123 3127 3130 3133 3135 3137 3140 3142 3143 3145 3147 3149 3149 3150 3149 3149 3150 3148 3147 3147 3145 3145 3144 3141 3140 3135 3128 3125 3123 3122 3123 3123 3120 3115 3113 3112
3106 3108 3111 3113 3114 3116 3119 3121 3124 3127 3130 3133 3135 3137 3139 3141 3142 3144 3145 3145 3145 3145 3144 3145 3144 3142 3141 3137 3136 3138 3135 3134 3132 3129 3122 3117 3113 3112 3111 3110 3111 3107 3102
3105 3108 3110 3112 3114 3116 3118 3121 3123 3126 3129 3131 3132 3133 3134 3137 3140 3140 3140 3140 3140 3140 3138 3136 3137 3136 3135 3134 3132 3128 3125 3126 3124 3122 3121 3117 3108 3106 3102 3097 3093 3092 3094
3103 3105 3108 3109 3112 3113 3116 3119 3123 3126 3127 3128 3128 3129 3130 3131 3133 3134 3135 3135 3134 3133 3132 3130 3129 3130 3128 3127 3127 3124 3121 3117 3113 3110 3107 3107 3107 3104 3098 3091 3087 3084 3083